Location: Glass Lake
(42.6301°N, 73.5309°W)
Time: 03:32:14
(UTC+00:00)

ACS3 Solar Sail - Pass Details

Date: 20 October 2024
Orbit: 961 x 1023 km, 97.5° (Epoch: 02 November)

Event Time Altitude Azimuth Distance (km) Brightness Sun altitude
Exits shadow 01:38:35 36° 266° (W) 1,585 3.1 -39.3°
Drops below altitude 10° 01:44:25 10° 331° (NNW) 2,838 4.7 -40.3°
Sets 01:47:11 0° 340° (NNW) 3,789 5.4 -40.7°
